IK5WWP Weather Reports


Display with metric or nautical units.
time (UTC)temp
F
wind
direction
speed
MPH
gust
MPH
rain 1hr
in
rain 24hr
in
rain mn
in
humidity
%
barometer
mb
20260509151035 76 83 2.0 4.0 0.00 0.00 0.00 56 1013.0
20260509150135 76 118 2.0 4.0 0.00 0.00 0.00 56 1013.2
20260509144335 77 87 2.0 4.0 0.00 0.00 0.00 54 1013.3
20260509143435 78 120 1.0 4.0 0.00 0.00 0.00 54 1013.2
20260509142535 78 91 1.0 6.0 0.00 0.00 0.00 52 1013.2
20260509141635 78 65 2.0 6.0 0.00 0.00 0.00 53 1013.3
20260509140736 77 46 2.0 6.0 0.00 0.00 0.00 55 1013.4
20260509135835 79 39 2.0 6.0 0.00 0.00 0.00 52 1013.7
20260509134935 79 134 3.0 4.0 0.00 0.00 0.00 50 1014.0
20260509134035 80 169 2.0 7.0 0.00 0.00 0.00 37 1014.0
20260509133135 81 147 3.0 7.0 0.00 0.00 0.00 37 1013.8
20260509132235 81 191 1.0 4.0 0.00 0.00 0.00 37 1014.0
20260509131335 80 196 1.0 4.0 0.00 0.00 0.00 37 1013.9
20260509130435 81 152 2.0 4.0 0.00 0.00 0.00 37 1013.9
20260509124635 81 190 2.0 4.0 0.00 0.00 0.00 38 1014.1
20260509123735 82 168 0.0 4.0 0.00 0.00 0.00 37 1014.1
20260509122835 80 163 2.0 4.0 0.00 0.00 0.00 36 1014.3
20260509121935 81 156 2.0 4.0 0.00 0.00 0.00 38 1014.1
20260509121035 80 157 2.0 4.0 0.00 0.00 0.00 38 1014.4
20260509120135 79 164 0.0 4.0 0.00 0.00 0.00 39 1014.3
20260509115236 79 176 2.0 4.0 0.00 0.00 0.00 40 1014.7
20260509114335 79 163 2.0 6.0 0.00 0.00 0.00 39 1014.9
20260509113435 80 150 2.0 4.0 0.00 0.00 0.00 42 1014.6
20260509112536 79 153 2.0 4.0 0.00 0.00 0.00 42 1014.8
20260509111636 78 164 2.0 4.0 0.00 0.00 0.00 44 1014.9
20260509110735 79 152 2.0 4.0 0.00 0.00 0.00 43 1014.7
20260509104936 78 167 2.0 4.0 0.00 0.00 0.00 43 1014.8
20260509104036 78 167 2.0 4.0 0.00 0.00 0.00 45 1014.7
20260509103135 78 152 1.0 4.0 0.00 0.00 0.00 43 1015.0
20260509102236 78 163 2.0 4.0 0.00 0.00 0.00 44 1014.9
20260509101336 77 159 2.0 4.0 0.00 0.00 0.00 40 1014.9
20260509100435 77 164 2.0 4.0 0.00 0.00 0.00 41 1015.0
20260509095536 77 156 1.0 4.0 0.00 0.00 0.00 43 1015.3
20260509094635 77 165 2.0 4.0 0.00 0.00 0.00 45 1015.2
20260509092836 76 158 1.0 4.0 0.00 0.00 0.00 45 1015.2
20260509091936 75 160 2.0 4.0 0.00 0.00 0.00 48 1015.3
20260509091036 74 163 2.0 4.0 0.00 0.00 0.00 52 1015.4
20260509090136 74 53 1.0 4.0 0.00 0.00 0.00 54 1015.6
20260509082536 72 25 1.0 2.0 0.00 0.00 0.00 61 1015.6
20260509081636 71 27 0.0 2.0 0.00 0.00 0.00 62 1015.7
20260509080740 70 23 1.0 2.0 0.00 0.00 0.00 64 1015.7
20260509075836 69 23 1.0 4.0 0.00 0.00 0.00 66 1015.9
20260509074936 68 23 0.0 2.0 0.00 0.00 0.00 70 1016.1
20260509074036 66 22 1.0 2.0 0.00 0.00 0.00 73 1015.9
20260509073136 65 23 0.0 2.0 0.00 0.00 0.00 75 1016.0
20260509072236 64 23 0.0 2.0 0.00 0.00 0.00 76 1016.1
20260509071336 64 22 1.0 2.0 0.00 0.00 0.00 76 1016.1
20260509070436 64 19 1.0 2.0 0.00 0.00 0.00 77 1016.0
20260509065536 63 22 0.0 2.0 0.00 0.00 0.00 77 1015.9
20260509064636 62 19 1.0 2.0 0.00 0.00 0.00 78 1016.2
20260509063736 61 0 0.0 0.0 0.00 0.00 0.00 80 1016.0
20260509062836 61 0 0.0 0.0 0.00 0.00 0.00 82 1016.1
20260509061936 60 0 0.0 0.0 0.00 0.00 0.00 84 1016.2
20260509061036 58 0 0.0 0.0 0.00 0.00 0.00 85 1016.1
20260509060136 58 0 0.0 0.0 0.00 0.00 0.00 86 1016.4
20260509055236 57 0 0.0 0.0 0.00 0.00 0.00 86 1016.2
20260509054336 56 0 0.0 0.0 0.00 0.00 0.00 86 1016.1
20260509053436 56 0 0.0 0.0 0.00 0.00 0.00 86 1016.2
20260509051636 55 0 0.0 0.0 0.00 0.00 0.00 86 1016.0
20260509050744 55 0 0.0 0.0 0.00 0.00 0.00 86 1016.1
20260509045836 55 0 0.0 0.0 0.00 0.00 0.00 86 1016.0
20260509044936 54 0 0.0 0.0 0.00 0.00 0.00 86 1015.9
20260509044036 54 5 0.0 2.0 0.00 0.00 0.00 86 1015.8
20260509043136 54 21 2.0 2.0 0.00 0.00 0.00 87 1015.6
20260509042236 54 0 0.0 0.0 0.00 0.00 0.00 87 1015.8
20260509041336 54 0 0.0 0.0 0.00 0.00 0.00 87 1015.7
20260509040436 54 0 0.0 0.0 0.00 0.00 0.00 86 1015.6
20260509034636 55 37 0.0 2.0 0.00 0.00 0.00 85 1015.4
20260509033736 55 25 1.0 2.0 0.00 0.00 0.00 84 1015.5
20260509032836 56 1 0.0 2.0 0.00 0.00 0.00 83 1015.3
20260509031936 56 1 0.0 2.0 0.00 0.00 0.00 82 1015.2
20260509031036 56 1 0.0 2.0 0.00 0.00 0.00 81 1015.3
20260509030136 56 1 1.0 2.0 0.00 0.00 0.00 83 1015.3
20260509025236 56 1 1.0 2.0 0.00 0.00 0.00 84 1015.1
20260509024336 55 0 0.0 0.0 0.00 0.00 0.00 86 1015.6
20260509023436 55 0 0.0 0.0 0.00 0.00 0.00 85 1015.4
20260509022536 55 0 0.0 0.0 0.00 0.00 0.00 85 1015.6
20260509021636 56 0 0.0 0.0 0.00 0.00 0.00 84 1015.6
20260509020737 56 0 0.0 0.0 0.00 0.00 0.00 84 1015.4
20260509015836 56 1 0.0 2.0 0.00 0.00 0.00 83 1015.2
20260509014936 57 0 0.0 0.0 0.00 0.00 0.00 82 1015.2
20260509014036 57 1 0.0 2.0 0.00 0.00 0.00 80 1015.2
20260509013136 58 7 0.0 2.0 0.00 0.00 0.00 79 1014.9
20260509012236 58 9 1.0 4.0 0.00 0.00 0.00 80 1015.2
20260509011336 57 4 1.0 4.0 0.00 0.00 0.00 80 1015.3
20260509010436 57 5 2.0 4.0 0.00 0.00 0.00 81 1015.0
20260509005536 58 0 0.0 0.0 0.00 0.00 0.00 81 1015.4
20260509004636 58 1 0.0 2.0 0.00 0.00 0.00 79 1015.1
20260509003736 58 1 0.0 2.0 0.00 0.00 0.00 79 1015.0
20260509002836 59 1 0.0 2.0 0.00 0.00 0.00 78 1015.0
20260509001936 59 1 1.0 2.0 0.00 0.00 0.00 79 1015.0
20260508235236 59 1 1.0 2.0 0.00 0.00 0.00 79 1014.7
20260508234336 59 1 1.0 2.0 0.00 0.00 0.00 79 1014.8
20260508231636 59 1 1.0 2.0 0.00 0.00 0.00 80 1015.0
20260508230737 59 1 0.0 4.0 0.00 0.00 0.00 79 1014.8
20260508224036 60 333 2.0 2.0 0.00 0.00 0.00 78 1015.2
20260508223137 60 314 2.0 4.0 0.00 0.00 0.00 78 1015.0
20260508222236 60 314 2.0 4.0 0.00 0.00 0.00 78 1015.3
20260508221337 60 314 2.0 2.0 0.00 0.00 0.00 78 1015.2